Satellite: NOAA-14 Catalog number: 23455 Epoch time: 08262.40263701 Element set: 308 Inclination: 098.9397 deg RA of node: 334.6649 deg Eccentricity: 0.0008713 Arg of perigee: 237.4645 deg Mean anomaly: 122.5726 deg Mean motion: 14.13748856 rev/day Decay rate: 2.21e-06 rev/day^2 Epoch rev: 70752 Checksum: 314
Satellite: NOAA-15 Catalog number: 25338 Epoch time: 08262.55173343 Element set: 624 Inclination: 098.5624 deg RA of node: 252.0732 deg Eccentricity: 0.0011452 Arg of perigee: 125.9565 deg Mean anomaly: 234.2665 deg Mean motion: 14.24724618 rev/day Decay rate: -4.5e-07 rev/day^2 Epoch rev: 53809 Checksum: 302
Satellite: RESURS Catalog number: 25394 Epoch time: 08261.70716982 Element set: 0033 Inclination: 098.3765 deg RA of node: 301.4114 deg Eccentricity: 0.0001013 Arg of perigee: 329.7074 deg Mean anomaly: 030.4047 deg Mean motion: 14.24170327 rev/day Decay rate: -2.0e-08 rev/day^2 Epoch rev: 52961 Checksum: 261
Satellite: FENGYUN1 Catalog number: 25730 Epoch time: 08261.95306548 Element set: 0613 Inclination: 098.7296 deg RA of node: 234.6237 deg Eccentricity: 0.0019755 Arg of perigee: 267.8308 deg Mean anomaly: 092.0599 deg Mean motion: 14.07779042 rev/day Decay rate: 2.61e-06 rev/day^2 Epoch rev: 48201 Checksum: 322
Satellite: OKEAN-0 Catalog number: 25860 Epoch time: 08262.55445388 Element set: 475 Inclination: 097.7588 deg RA of node: 249.0117 deg Eccentricity: 0.0001365 Arg of perigee: 037.7348 deg Mean anomaly: 322.3957 deg Mean motion: 14.73536073 rev/day Decay rate: 2.4e-07 rev/day^2 Epoch rev: 49314 Checksum: 320
Satellite: NOAA-16 Catalog number: 26536 Epoch time: 08262.49814797 Element set: 98 Inclination: 099.1651 deg RA of node: 253.7571 deg Eccentricity: 0.0010171 Arg of perigee: 328.6803 deg Mean anomaly: 031.3751 deg Mean motion: 14.12495750 rev/day Decay rate: -2.52e-06 rev/day^2 Epoch rev: 41194 Checksum: 311
Satellite: NOAA-17 Catalog number: 27453 Epoch time: 08262.43460844 Element set: 94 Inclination: 098.5260 deg RA of node: 324.3202 deg Eccentricity: 0.0011746 Arg of perigee: 191.5716 deg Mean anomaly: 168.5242 deg Mean motion: 14.24002941 rev/day Decay rate: 1.28e-06 rev/day^2 Epoch rev: 32407 Checksum: 280
Satellite: NOAA-18 Catalog number: 28654 Epoch time: 08262.43081191 Element set: 581 Inclination: 098.8734 deg RA of node: 202.2353 deg Eccentricity: 0.0015356 Arg of perigee: 052.1679 deg Mean anomaly: 308.0879 deg Mean motion: 14.11192241 rev/day Decay rate: -1.53e-06 rev/day^2 Epoch rev: 17162 Checksum: 297
/EX SB KEPS @ AMSAT $ORB08262.M Orbital Elements 08262.MISC
HR AMSAT ORBITAL ELEMENTS FOR MANNED AND MISCELLANEOUS SATELLITES FROM WA5QGD FORT WORTH,TX September 18, 2008 Send Subscribe/unsubscribe to KEPS at http://www.amsat.org/mailman/listinfo/keps BID: ORB08262.M TO ALL RADIO AMATEURS BT
Satellite: HUBBLE Catalog number: 20580 Epoch time: 08262.80185450 Element set: 223 Inclination: 028.4674 deg RA of node: 072.6299 deg Eccentricity: 0.0003532 Arg of perigee: 294.7571 deg Mean anomaly: 065.2652 deg Mean motion: 15.00407993 rev/day Decay rate: 3.03e-06 rev/day^2 Epoch rev: 80905 Checksum: 286
Satellite: PO-34 Catalog number: 25520 Epoch time: 08261.41866736 Element set: 0091 Inclination: 028.4605 deg RA of node: 281.2785 deg Eccentricity: 0.0005609 Arg of perigee: 209.4350 deg Mean anomaly: 150.5929 deg Mean motion: 15.17228212 rev/day Decay rate: 3.00e-06 rev/day^2 Epoch rev: 54718 Checksum: 290
Satellite: ISS Catalog number: 25544 Epoch time: 08262.49137262 Element set: 277 Inclination: 051.6418 deg RA of node: 257.8410 deg Eccentricity: 0.0006802 Arg of perigee: 124.7476 deg Mean anomaly: 014.0381 deg Mean motion: 15.72120259 rev/day Decay rate: 7.507e-05 rev/day^2 Epoch rev: 56321 Checksum: 282
Satellite: CO-58 Catalog number: 28895 Epoch time: 08261.72965043 Element set: 0123 Inclination: 098.0850 deg RA of node: 153.4966 deg Eccentricity: 0.0019005 Arg of perigee: 118.5294 deg Mean anomaly: 241.7828 deg Mean motion: 14.59696608 rev/day Decay rate: 1.19e-06 rev/day^2 Epoch rev: 15398 Checksum: 346
Satellite: FALCON Catalog number: 30776 Epoch time: 08261.50854476 Element set: 0412 Inclination: 035.4353 deg RA of node: 313.5609 deg Eccentricity: 0.0001157 Arg of perigee: 032.2213 deg Mean anomaly: 327.8574 deg Mean motion: 15.03051831 rev/day Decay rate: 2.56e-06 rev/day^2 Epoch rev: 08404 Checksum: 264
Satellite: MAST Catalog number: 31126 Epoch time: 08262.38626663 Element set: 421 Inclination: 098.0316 deg RA of node: 323.0535 deg Eccentricity: 0.0095351 Arg of perigee: 043.6899 deg Mean anomaly: 317.1841 deg Mean motion: 14.53444478 rev/day Decay rate: -7.7e-07 rev/day^2 Epoch rev: 7555 Checksum: 304
Satellite: CAPE1 Catalog number: 31130 Epoch time: 08262.63720210 Element set: 407 Inclination: 098.0326 deg RA of node: 322.0920 deg Eccentricity: 0.0103694 Arg of perigee: 046.5214 deg Mean anomaly: 314.4527 deg Mean motion: 14.51991989 rev/day Decay rate: 1.28e-06 rev/day^2 Epoch rev: 7528 Checksum: 274
Satellite: COMPASS Catalog number: 32787 Epoch time: 08261.71912001 Element set: 0156 Inclination: 097.9816 deg RA of node: 321.3066 deg Eccentricity: 0.0015535 Arg of perigee: 193.2469 deg Mean anomaly: 166.8337 deg Mean motion: 14.81459963 rev/day Decay rate: 7.1e-07 rev/day^2 Epoch rev: 02110 Checksum: 297
Satellite: AAUSAT2 Catalog number: 32788 Epoch time: 08261.91124263 Element set: 0161 Inclination: 097.9805 deg RA of node: 321.5152 deg Eccentricity: 0.0015210 Arg of perigee: 192.2994 deg Mean anomaly: 167.7841 deg Mean motion: 14.81570322 rev/day Decay rate: -1.54e-06 rev/day^2 Epoch rev: 02113 Checksum: 279
Satellite: DO-64 Catalog number: 32789 Epoch time: 08262.73303867 Element set: 160 Inclination: 097.9837 deg RA of node: 322.3689 deg Eccentricity: 0.0015612 Arg of perigee: 189.2809 deg Mean anomaly: 170.8115 deg Mean motion: 14.81473517 rev/day Decay rate: 3.85e-06 rev/day^2 Epoch rev: 2125 Checksum: 329
Satellite: CO-66 Catalog number: 32791 Epoch time: 08261.73275305 Element set: 0157 Inclination: 097.9832 deg RA of node: 321.3393 deg Eccentricity: 0.0015739 Arg of perigee: 191.2816 deg Mean anomaly: 168.8046 deg Mean motion: 14.81313914 rev/day Decay rate: 1.18e-06 rev/day^2 Epoch rev: 02107 Checksum: 309
Satellite: RS-30 Catalog number: 32953 Epoch time: 08261.89287637 Element set: 0112 Inclination: 082.4966 deg RA of node: 065.9301 deg Eccentricity: 0.0019799 Arg of perigee: 054.4933 deg Mean anomaly: 305.7997 deg Mean motion: 12.42997489 rev/day Decay rate: 1.0e-07 rev/day^2 Epoch rev: 01456 Checksum: 341
/EX
participants (1)
-
Ray Hoad